Miscellaneous Local Product
Issued by NWS North Platte, NE

Home | Current Version | Previous Version | Text Only | Print | Product List | Glossary On
Versions: 1 2 3 4 5 6 7 8 9 10 11 12 13 14 15 16 17 18 19 20 21 22 23 24 25 26 27 28 29 30 31 32 33 34 35 36 37 38 39 40 41 42 43 44 45 46 47 48 49 50
000
AXUS43 KLBF 261610
MISLBF


WESTERN AND NORTH CENTRAL NEBRASKA HOURLY WEATHER ROUNDUP
NATIONAL WEATHER SERVICE NORTH PLATTE NE
1000 AM CST WED NOV 26 2014

***STATIONS NOT REPORTING VARIABLES SUCH AS SKY/WEATHER OR
PRESSURE ARE PROVIDED BY THE NEBRASKA DEPARTMENT OF
ROADS...RAWS...AND APRS NETWORKS...AND ARE NOT UNDER
NATIONAL WEATHER SERVICE QUALITY CONTROL***

...OBSERVATIONS IN AND NEAR THE EASTERN PANHANDLE OF NEBRASKA...

CITY           SKY/WX    TMP DP  RH WIND       PRES   REMARKS
PINE RIDGE     LGT SNOW  25  22  88 CALM      30.25R VSB 1
CHADRON        CLOUDY    33  21  61 CALM      30.26R
ALLIANCE       CLOUDY    26  21  81 NE3       30.22R
SIDNEY         LGT SNOW  28  25  88 NW13      30.23R FOG     WCI  17
WHITECLAY        N/A     24  20  85 CALM        N/A
CRESCENT LAKE    N/A     26  20  78 N7          N/A  WCI  18
LISCO            N/A     29  22  74 CALM        N/A
BIG SPRINGS      N/A     30  24  77 NW5         N/A  WCI  25
$$

...OBSERVATIONS IN NORTH CENTRAL NEBRASKA...

CITY           SKY/WX    TMP DP  RH WIND       PRES   REMARKS
VALENTINE      CLOUDY    23  17  78 N10G22    30.28R WCI  12
THEDFORD       CLOUDY    27  23  84 N13       30.25R WCI  16
AINSWORTH      CLOUDY    21  18  86 NW14      30.26R WCI   8
O`NEILL        CLOUDY    23  20  91 NW22G30   30.23R WCI   7
ORD            CLOUDY    25  18  74 N22G32    30.20R WCI  10
BROKEN BOW     CLOUDY    27  19  72 N28G36    30.21R WCI  11
BROWNLEE         N/A     22  20  93 N18         N/A  WCI   8
SPRINGVIEW       N/A     21  16  81 NW9G17      N/A  WCI  11
BREWSTER         N/A     27  23  86 S18         N/A  WCI  13
SARGENT          N/A     24  19  79 NW7G15      N/A  WCI  16
COMSTOCK         N/A     30  25  80 W22         N/A  WCI  17
CHAMBERS         N/A     23  17  78 W18         N/A  WCI   9
EWING            N/A     22  19  88 CALM        N/A
$$

...OBSERVATIONS IN SOUTHWEST NEBRASKA AND FAR NORTHEAST COLORADO...

CITY           SKY/WX    TMP DP  RH WIND       PRES   REMARKS
WRAY           CLOUDY    33  29  86 NW10      30.25R WCI  24
HOLYOKE        LGT SNOW  32  28  86 N9        30.25R WCI  24
IMPERIAL       CLOUDY    31  19  61 N15       30.25R WCI  20
OGALLALA       CLOUDY    31  23  71 N13       30.25R WCI  21
NORTH PLATTE   CLOUDY    29  19  66 N10G28    30.25R WCI  20
MCCOOK         PTSUNNY   34  19  54 N24G30    30.24R WCI  21
LEXINGTON      PTSUNNY   32  22  66 N20       30.21R WCI  20
PAXTON           N/A     30  23  75 NW9         N/A  WCI  22
BRADY            N/A     29  21  71 SW3         N/A
GOTHENBURG       N/A     29  20  69 NW14        N/A  WCI  18
CALLAWAY         N/A     27  21  78 N20         N/A  WCI  14
$$

...NORTH PLATTE AREA...

CITY           SKY/WX    TMP DP  RH WIND       PRES   REMARKS
AIRPORT        CLOUDY    29  19  66 N10G28    30.25R WCI  20
DOWNTOWN         N/A     29  20  68 N7G17       N/A  WCI  22
$$

...SOME WEATHER OBSERVATIONS FROM AROUND THE REGION...

CITY           SKY/WX    TMP DP  RH WIND       PRES   REMARKS
DENVER         MOSUNNY   30  20  66 E8        30.22R WCI  22
LARAMIE        PTSUNNY   39  28  64 W26       30.09R WCI  28
CHEYENNE       MIX PCPN  24  19  81 CALM      30.16R
SCOTTSBLUFF    MIX PCPN  29  26  89 W7        30.23R WCI  22
RAPID CITY     CLOUDY    24  21  88 SE6       30.24R WCI  17
PIERRE         CLOUDY    20  13  74 NE9       30.32R WCI   9
WINNER         CLOUDY    22  16  78 N15       30.30R WCI   9
SIOUX FALLS    PTSUNNY   21  16  81 N23G29    30.17R WCI   5
OMAHA          CLOUDY    35  29  78 N28G37    30.01R WCI  22
GRAND ISLAND   CLOUDY    27  20  75 N28G36    30.17R WCI  11
KANSAS CITY    CLOUDY    41  33  73 NW17G25   29.96R
WICHITA        MOSUNNY   47  25  42 NW30G39   30.12R
HAYS           MOSUNNY   39  18  41 N22G33    30.19R WCI  29
LIBERAL        SUNNY     39  28  65 NW22      30.28R WCI  29
GOODLAND       CLOUDY    33  29  85 NW15      30.24R WCI  23
$$



USA.gov is the U.S. government's official web portal to all federal, state and local government web resources and services.